星链-5001 (STARLINK-5001 )

导读 | 星芒AI

STARLINK-5001 是 SpaceX 星链计划中的一颗低轨通信卫星,属于第 50 批发射的星链卫星群。该卫星旨在为全球用户提供高速互联网服务,尤其关注网络覆盖不足的地区。它运行在约 550 公里的轨道高度,采用先进的推进系统和激光通信技术,以提升连接效率和稳定性。STARLINK-5001 的部署进一步增强了星链星座的覆盖能力,推动了全球宽带互联网的普及。

基本信息
目录编号:
53924
目录名称:
STARLINK-5001
国际标识:
2022-119AQ
轨道中心:
EARTH
卫星名称:
星链-5001
卫星全名:
星链-5001 (STARLINK-5001 )
卫星状态:
在轨 (已飞行1138 天)
发射日期:
2022-09-24 UTC
国别 :
美国 (US)
星等 :
--
轨道信息
数据来源 国际轨道数据
星历时间: 2025-11-04T22:38:41+0800
9小时前
查看轨道信息
半长轴: 6917.884km
偏心率: 0.0001358
轨道倾角: 53.216°
近地点辐角 101.391°
升交点赤经 150.530°
平近点角 258.724°
近地点: 538.809km
远地点: 540.689km
周期: 95.438分钟
每日圈数: 15.08839
详细信息
固有亮度:
5
最大亮度:
2.5
卫星平台:
Starlink v1.5
覆盖范围:
全球
运营商:
太空探索技术公司
运营商所在国:
美国
制造商(研发单位):
太空探索技术公司
制造商所在国:
美国
使用方式:
暂无
卫星简介
星链(Starlink)计划是由太空探索技术公司(SpaceX)提出的一个巨型低轨卫星互联网星座项目,计划在2019年至2024年间在太空搭建由约1.2万颗卫星组成的“星链”网络,其中1584颗将部署在地球上空550千米处的近地轨道,并从2020年开始工作。该卫星仍在工作。
2D轨道图
3D轨道图
轨道高度分析图
轨道倾角分析图
轨道综合分析图
查看轨道综合分析图